WZZ5463 EGGW-EDLW

Flight info

Callsign WZZ5463
Flight time 0h 59m
Altitude 33000
Route MATCH Q295 BRAIN M197 REDFA L620 TACHA DCT PAM L620 SONEB Z841 DOMEG DOMEG2A
Aircraft A320/M-SDE1E2E3FGIJ1J4RWXY/LB1

Departure

Time 2026-04-30 11:12
Airport London Luton Airport (EGGW)

Arrival

Time 2026-04-30 12:12
Airport Dortmund Airport (EDLW)
Time Latitude Longitude Altitude Speed Heading
2026-04-30 10:57 51.87988 -0.37864 524 ft 0 kts 128°
2026-04-30 11:05 51.87991 -0.37872 523 ft 4 kts 128°
2026-04-30 11:05 51.88006 -0.37903 523 ft 1 kts 128°
2026-04-30 11:05 51.88015 -0.37929 523 ft 4 kts 66°
2026-04-30 11:06 51.88000 -0.37957 523 ft 4 kts 38°
2026-04-30 11:06 51.87994 -0.37965 523 ft 0 kts 38°
2026-04-30 11:07 51.88005 -0.37951 523 ft 7 kts 38°
2026-04-30 11:07 51.88071 -0.37867 523 ft 18 kts 38°
2026-04-30 11:08 51.88172 -0.37695 523 ft 23 kts 58°
2026-04-30 11:08 51.88224 -0.37355 517 ft 16 kts 72°
2026-04-30 11:08 51.88210 -0.37242 517 ft 13 kts 146°
2026-04-30 11:08 51.88083 -0.37168 509 ft 27 kts 161°
2026-04-30 11:09 51.87914 -0.37074 509 ft 27 kts 163°
2026-04-30 11:09 51.87733 -0.36980 520 ft 28 kts 161°
2026-04-30 11:09 51.87615 -0.36999 522 ft 11 kts 256°
2026-04-30 11:09 51.87592 -0.37178 522 ft 22 kts 253°
2026-04-30 11:10 51.87587 -0.37403 522 ft 18 kts 251°
2026-04-30 11:10 51.87493 -0.37589 523 ft 26 kts 249°
2026-04-30 11:10 51.87452 -0.37832 522 ft 17 kts 254°
2026-04-30 11:10 51.87407 -0.38048 524 ft 10 kts 229°
2026-04-30 11:11 51.87301 -0.38117 522 ft 22 kts 199°
2026-04-30 11:11 51.87250 -0.38038 524 ft 14 kts 63°
2026-04-30 11:11 51.87293 -0.37825 525 ft 33 kts 76°
2026-04-30 11:11 51.87423 -0.37069 523 ft 103 kts 75°
2026-04-30 11:12 51.87660 -0.35664 571 ft 151 kts 77°
2026-04-30 11:12 51.87969 -0.33969 1096 ft 162 kts 77°
2026-04-30 11:12 51.88251 -0.32101 1659 ft 181 kts 81°
2026-04-30 11:12 51.88555 -0.29984 2161 ft 206 kts 78°
2026-04-30 11:13 51.88965 -0.27611 2783 ft 231 kts 78°
2026-04-30 11:13 51.89415 -0.25055 3711 ft 239 kts 83°
2026-04-30 11:13 51.89353 -0.22419 4703 ft 237 kts 113°
2026-04-30 11:13 51.88366 -0.20302 5574 ft 243 kts 144°
2026-04-30 11:14 51.86854 -0.19046 6115 ft 247 kts 154°
2026-04-30 11:14 51.85269 -0.17933 7132 ft 250 kts 155°
2026-04-30 11:14 51.83655 -0.16821 8096 ft 255 kts 155°
2026-04-30 11:14 51.82008 -0.15673 9129 ft 260 kts 155°
2026-04-30 11:15 51.80337 -0.14495 10094 ft 265 kts 154°
2026-04-30 11:15 51.78610 -0.13216 10626 ft 284 kts 149°
2026-04-30 11:15 51.77052 -0.11091 11017 ft 304 kts 129°
2026-04-30 11:15 51.76004 -0.08087 11705 ft 313 kts 111°
2026-04-30 11:16 51.75576 -0.04604 12489 ft 322 kts 94°
2026-04-30 11:16 51.75773 -0.00967 13256 ft 329 kts 85°
2026-04-30 11:16 51.76082 0.02716 14039 ft 333 kts 85°
2026-04-30 11:16 51.76397 0.06436 14743 ft 337 kts 85°
2026-04-30 11:17 51.76714 0.10208 15427 ft 341 kts 85°
2026-04-30 11:17 51.77031 0.14022 16118 ft 345 kts 85°
2026-04-30 11:17 51.77345 0.17878 16798 ft 349 kts 85°
2026-04-30 11:17 51.77662 0.21784 17497 ft 352 kts 85°
2026-04-30 11:18 51.77982 0.25725 18184 ft 356 kts 86°
2026-04-30 11:18 51.78633 0.33744 19461 ft 363 kts 86°
2026-04-30 11:18 51.78959 0.37796 20116 ft 365 kts 86°
2026-04-30 11:19 51.79283 0.41880 20769 ft 368 kts 86°
2026-04-30 11:19 51.79607 0.45996 21388 ft 370 kts 86°
2026-04-30 11:19 51.79934 0.50132 21974 ft 373 kts 85°
2026-04-30 11:19 51.80262 0.54309 22534 ft 376 kts 85°
2026-04-30 11:20 51.80590 0.58509 23123 ft 378 kts 85°
2026-04-30 11:20 51.80918 0.62737 23698 ft 381 kts 85°
2026-04-30 11:20 51.81380 0.66975 24188 ft 386 kts 79°
2026-04-30 11:20 51.82035 0.71200 24664 ft 389 kts 79°
2026-04-30 11:21 51.82693 0.75453 25152 ft 391 kts 79°
2026-04-30 11:21 51.83353 0.79731 25639 ft 393 kts 79°
2026-04-30 11:21 51.84031 0.84027 26108 ft 396 kts 78°
2026-04-30 11:21 51.84781 0.88336 26585 ft 399 kts 77°
2026-04-30 11:22 51.85580 0.92656 27054 ft 402 kts 77°
2026-04-30 11:22 51.86401 0.96992 27510 ft 405 kts 77°
2026-04-30 11:22 51.87228 1.01361 27946 ft 407 kts 76°
2026-04-30 11:22 51.88049 1.05763 28393 ft 410 kts 76°
2026-04-30 11:23 51.88863 1.10199 28842 ft 412 kts 77°
2026-04-30 11:23 51.89669 1.14662 29290 ft 415 kts 77°
2026-04-30 11:23 51.91276 1.23686 30206 ft 420 kts 77°
2026-04-30 11:24 51.92086 1.28247 30606 ft 422 kts 77°
2026-04-30 11:24 51.92903 1.32831 30983 ft 425 kts 77°
2026-04-30 11:24 51.93724 1.37440 31361 ft 427 kts 77°
2026-04-30 11:25 51.95375 1.46740 32105 ft 432 kts 77°
2026-04-30 11:25 51.96204 1.51426 32513 ft 433 kts 77°
2026-04-30 11:25 51.97850 1.60808 33274 ft 432 kts 77°
2026-04-30 11:26 51.99445 1.69947 33328 ft 412 kts 78°
2026-04-30 11:26 52.00879 1.78891 33333 ft 408 kts 79°
2026-04-30 11:27 52.02224 1.87821 33334 ft 407 kts 79°
2026-04-30 11:27 52.03570 1.96757 33329 ft 408 kts 79°
2026-04-30 11:28 52.05629 2.10112 33335 ft 408 kts 79°
2026-04-30 11:29 52.06998 2.19064 33339 ft 408 kts 79°
2026-04-30 11:29 52.09025 2.32512 33348 ft 408 kts 79°
2026-04-30 11:30 52.11044 2.45964 33344 ft 408 kts 79°
2026-04-30 11:31 52.12504 2.54887 33342 ft 409 kts 76°
2026-04-30 11:31 52.14226 2.63703 33352 ft 409 kts 75°
2026-04-30 11:32 52.15982 2.72505 33359 ft 409 kts 75°
2026-04-30 11:32 52.17682 2.81333 33363 ft 409 kts 75°
2026-04-30 11:33 52.20159 2.94617 33361 ft 408 kts 76°
2026-04-30 11:33 52.21799 3.03474 33359 ft 408 kts 75°
2026-04-30 11:34 52.23442 3.12332 33359 ft 408 kts 75°
2026-04-30 11:34 52.25080 3.21200 33365 ft 408 kts 76°
2026-04-30 11:35 52.25938 3.30284 33363 ft 405 kts 87°
2026-04-30 11:35 52.26386 3.39461 33362 ft 405 kts 87°
2026-04-30 11:36 52.26830 3.48635 33363 ft 406 kts 86°
2026-04-30 11:36 52.27270 3.57822 33362 ft 406 kts 86°
2026-04-30 11:37 52.27699 3.67017 33373 ft 406 kts 87°
2026-04-30 11:37 52.28124 3.76210 33377 ft 406 kts 86°
2026-04-30 11:38 52.28546 3.85398 33372 ft 406 kts 87°
2026-04-30 11:38 52.28958 3.94590 33372 ft 406 kts 87°
2026-04-30 11:39 52.29360 4.03778 33374 ft 406 kts 86°
2026-04-30 11:39 52.29755 4.12968 33375 ft 406 kts 86°
2026-04-30 11:40 52.30147 4.22161 33372 ft 406 kts 86°
2026-04-30 11:40 52.30525 4.31300 33380 ft 405 kts 87°
2026-04-30 11:41 52.30894 4.40492 33380 ft 405 kts 87°
2026-04-30 11:41 52.31266 4.49681 33379 ft 405 kts 87°
2026-04-30 11:42 52.31632 4.58870 33381 ft 405 kts 87°
2026-04-30 11:42 52.31988 4.68066 33381 ft 405 kts 87°
2026-04-30 11:43 52.32333 4.77260 33393 ft 405 kts 87°
2026-04-30 11:43 52.32669 4.86454 33392 ft 405 kts 87°
2026-04-30 11:44 52.33000 4.95640 33387 ft 405 kts 87°
2026-04-30 11:44 52.33301 5.04832 33396 ft 404 kts 90°
2026-04-30 11:45 52.32380 5.13838 33394 ft 404 kts 109°
2026-04-30 11:45 52.30345 5.22379 33406 ft 403 kts 110°
2026-04-30 11:46 52.28305 5.30920 33410 ft 403 kts 110°
2026-04-30 11:46 52.26272 5.39448 33407 ft 403 kts 110°
2026-04-30 11:47 52.24226 5.47964 33409 ft 403 kts 110°
2026-04-30 11:47 52.22164 5.56481 33399 ft 404 kts 110°
2026-04-30 11:48 52.20106 5.64999 33406 ft 404 kts 110°
2026-04-30 11:48 52.18044 5.73507 33413 ft 404 kts 110°
2026-04-30 11:49 52.15936 5.82121 32957 ft 417 kts 110°
2026-04-30 11:49 52.14849 5.86541 32118 ft 421 kts 110°
2026-04-30 11:49 52.13767 5.90928 31639 ft 415 kts 110°
2026-04-30 11:50 52.12696 5.95270 31119 ft 411 kts 110°
2026-04-30 11:50 52.11639 5.99559 30608 ft 406 kts 110°
2026-04-30 11:50 52.10948 6.02359 30449 ft 399 kts 110°
2026-04-30 11:50 52.09952 6.06500 30392 ft 388 kts 107°
2026-04-30 11:51 52.09291 6.10744 29817 ft 389 kts 99°
2026-04-30 11:51 52.08829 6.15123 28795 ft 396 kts 98°
2026-04-30 11:51 52.08384 6.19523 28289 ft 391 kts 98°
2026-04-30 11:51 52.07948 6.23848 27843 ft 385 kts 98°
2026-04-30 11:52 52.07514 6.28108 27394 ft 379 kts 98°
2026-04-30 11:52 52.07081 6.32308 26969 ft 374 kts 98°
2026-04-30 11:52 52.06650 6.36460 26542 ft 370 kts 98°
2026-04-30 11:52 52.06220 6.40566 26110 ft 367 kts 98°
2026-04-30 11:53 52.05788 6.44639 25683 ft 364 kts 98°
2026-04-30 11:53 52.05356 6.48680 25261 ft 362 kts 98°
2026-04-30 11:53 52.04929 6.52688 24819 ft 359 kts 98°
2026-04-30 11:53 52.04505 6.56678 24375 ft 357 kts 98°
2026-04-30 11:54 52.04080 6.60636 23909 ft 355 kts 98°
2026-04-30 11:54 52.03652 6.64571 23412 ft 352 kts 98°
2026-04-30 11:54 52.03228 6.68459 22957 ft 349 kts 98°
2026-04-30 11:54 52.02806 6.72323 22503 ft 345 kts 98°
2026-04-30 11:55 52.02230 6.76082 22028 ft 343 kts 108°
2026-04-30 11:55 52.01190 6.79554 21551 ft 343 kts 119°
2026-04-30 11:55 51.99945 6.82835 21086 ft 340 kts 119°
2026-04-30 11:55 51.98709 6.86097 20624 ft 338 kts 119°
2026-04-30 11:56 51.97486 6.89336 20146 ft 336 kts 118°
2026-04-30 11:56 51.96270 6.92564 19675 ft 335 kts 118°
2026-04-30 11:56 51.95058 6.95771 19198 ft 333 kts 118°
2026-04-30 11:56 51.93848 6.98960 18744 ft 331 kts 118°
2026-04-30 11:57 51.92639 7.02132 18227 ft 329 kts 119°
2026-04-30 11:57 51.91442 7.05267 17759 ft 326 kts 119°
2026-04-30 11:57 51.90260 7.08375 17297 ft 322 kts 118°
2026-04-30 11:57 51.89091 7.11456 16844 ft 320 kts 119°
2026-04-30 11:58 51.87934 7.14505 16388 ft 317 kts 119°
2026-04-30 11:58 51.86780 7.17536 15928 ft 315 kts 119°
2026-04-30 11:58 51.85634 7.20538 15475 ft 313 kts 119°
2026-04-30 11:58 51.84492 7.23521 15032 ft 311 kts 119°
2026-04-30 11:59 51.83356 7.26485 14589 ft 309 kts 119°
2026-04-30 11:59 51.82226 7.29436 14140 ft 308 kts 119°
2026-04-30 11:59 51.81100 7.32373 13685 ft 307 kts 119°
2026-04-30 11:59 51.79982 7.35293 13233 ft 305 kts 119°
2026-04-30 12:00 51.78868 7.38198 12801 ft 303 kts 119°
2026-04-30 12:00 51.77761 7.41079 12364 ft 301 kts 119°
2026-04-30 12:00 51.76658 7.43944 11938 ft 299 kts 120°
2026-04-30 12:00 51.75561 7.46785 11507 ft 298 kts 120°
2026-04-30 12:01 51.74466 7.49617 11077 ft 296 kts 120°
2026-04-30 12:01 51.73377 7.52433 10646 ft 295 kts 120°
2026-04-30 12:01 51.72293 7.55210 10415 ft 287 kts 122°
2026-04-30 12:01 51.70941 7.57522 10227 ft 283 kts 140°
2026-04-30 12:02 51.69202 7.58986 9981 ft 283 kts 158°
2026-04-30 12:02 51.67273 7.59595 9738 ft 281 kts 167°
2026-04-30 12:02 51.65363 7.60046 9506 ft 275 kts 166°
2026-04-30 12:02 51.63479 7.60493 9273 ft 273 kts 166°
2026-04-30 12:03 51.61604 7.60920 9040 ft 272 kts 169°
2026-04-30 12:03 51.58050 7.58851 8583 ft 290 kts 219°
2026-04-30 12:03 51.56647 7.56501 8356 ft 291 kts 223°
2026-04-30 12:04 51.55291 7.54102 8133 ft 290 kts 223°
2026-04-30 12:04 51.54016 7.51580 7908 ft 293 kts 236°
2026-04-30 12:04 51.53099 7.48639 7578 ft 297 kts 242°
2026-04-30 12:04 51.52248 7.45620 7041 ft 295 kts 242°
2026-04-30 12:05 51.51427 7.42633 6484 ft 291 kts 242°
2026-04-30 12:05 51.50625 7.39677 5931 ft 287 kts 242°
2026-04-30 12:05 51.49840 7.36750 5372 ft 284 kts 242°
2026-04-30 12:05 51.49068 7.33852 4807 ft 280 kts 242°
2026-04-30 12:06 51.48039 7.31301 4241 ft 267 kts 218°
2026-04-30 12:06 51.46481 7.29885 3682 ft 253 kts 188°
2026-04-30 12:06 51.44789 7.29911 3124 ft 241 kts 158°
2026-04-30 12:06 51.43430 7.31339 2595 ft 231 kts 126°
2026-04-30 12:07 51.42817 7.33561 2465 ft 209 kts 98°
2026-04-30 12:07 51.42913 7.35748 2459 ft 190 kts 75°
2026-04-30 12:07 51.43491 7.37657 2477 ft 191 kts 63°
2026-04-30 12:07 51.44137 7.39463 2470 ft 181 kts 63°
2026-04-30 12:08 51.44746 7.41172 2464 ft 172 kts 63°
2026-04-30 12:08 51.45338 7.42843 2473 ft 170 kts 64°
2026-04-30 12:08 51.45913 7.44462 2499 ft 164 kts 63°
2026-04-30 12:08 51.46469 7.46032 2424 ft 163 kts 63°
2026-04-30 12:09 51.47028 7.47612 2276 ft 164 kts 64°
2026-04-30 12:09 51.47575 7.49153 2089 ft 152 kts 64°
2026-04-30 12:09 51.48074 7.50563 1887 ft 138 kts 64°
2026-04-30 12:09 51.48537 7.51871 1713 ft 132 kts 65°
2026-04-30 12:10 51.48987 7.53148 1514 ft 130 kts 63°
2026-04-30 12:10 51.49425 7.54391 1343 ft 127 kts 63°
2026-04-30 12:10 51.49861 7.55625 1170 ft 127 kts 64°
2026-04-30 12:10 51.50294 7.56853 998 ft 127 kts 62°
2026-04-30 12:11 51.50735 7.58104 824 ft 127 kts 61°
2026-04-30 12:11 51.51168 7.59340 635 ft 126 kts 61°
2026-04-30 12:11 51.51599 7.60557 451 ft 125 kts 61°
2026-04-30 12:11 51.52001 7.61689 414 ft 104 kts 59°
2026-04-30 12:12 51.52187 7.62219 417 ft 19 kts 73°
2026-04-30 12:12 51.52113 7.62380 411 ft 19 kts 152°
2026-04-30 12:12 51.52029 7.62325 410 ft 15 kts 240°
2026-04-30 12:12 51.52013 7.62277 411 ft 5 kts 241°
2026-04-30 12:13 51.51994 7.62221 410 ft 7 kts 241°
2026-04-30 12:13 51.51966 7.62142 412 ft 10 kts 240°
2026-04-30 12:13 51.51925 7.62024 411 ft 14 kts 240°
2026-04-30 12:13 51.51874 7.61880 414 ft 16 kts 240°
2026-04-30 12:14 51.51817 7.61717 417 ft 17 kts 240°
2026-04-30 12:14 51.51764 7.61570 421 ft 13 kts 240°
2026-04-30 12:14 51.51720 7.61481 426 ft 6 kts 202°
2026-04-30 12:14 51.51681 7.61503 432 ft 7 kts 150°
2026-04-30 12:15 51.51677 7.61507 434 ft 0 kts 148°
2026-04-30 12:15 51.51664 7.61519 420 ft 0 kts 332°